Station ATGM1 - 8413320 - Bar Harbor, ME Image indicating link to RSS feed of recent meteorological observations for station ATGM1


Conditions at ATGM1 as of
(5:30 pm EDT)
2130 GMT on 05/27/2024:
     

Click on the graph icon in the table below to see a time series plot of the last five days of that observation.

5-day plot - Wind Direction Wind Direction (WDIR): S ( 170 deg true )
5-day plot - Wind Speed Wind Speed (WSPD): 8.0 kts
5-day plot - Wind Gust Wind Gust (GST): 15.0 kts
5-day plot - Atmospheric Pressure Atmospheric Pressure (PRES):30.02 in
5-day plot - Water Temperature Water Temperature (WTMP): 50.4 °F
5-day plot - Wind Speed at 10 Meters Wind Speed at 10 meters (WSPD10M): 7.8 kts
5-day plot - Wind Speed at 20 Meters Wind Speed at 20 meters (WSPD20M): 9.7 kts
5-day plot -  Wind Speed, Wind Gust and Atmospheric Pressure Combined plot of Wind Speed, Gust, and Air Pressure
NOS Water Level Observation Network Water Level
Previous observations
TIME
(EDT)
5-day plot - Wind Direction
WDIR
 
5-day plot - Wind Speed
WSPD
kts
5-day plot - Wind Gust
GST
kts
5-day plot - Wave Height
WVHT
ft
5-day plot - Dominant Wave Period
DPD
sec
5-day plot - Average Wave Period
APD
sec
5-day plot - Mean Wave Direction
MWD
 
5-day plot - Atmospheric Pressure
PRES
in
5-day plot - Pressure Tendency
PTDY
in
5-day plot - Air Temperature
ATMP
°F
5-day plot - Water Temperature
WTMP
°F
5-day plot - Dew Point
DEWP
°F
5-day plot - Salinity
SAL
psu
5-day plot - Visibility
VIS
nmi
5-day plot - Tide (above MLLW)
TIDE
ft
2024-05-27 05:24 pm S 9.9 15.0----30.02-- 50.4----
2024-05-27 05:18 pmSSE 9.9 15.0----30.02- 53.1 50.4----
2024-05-27 05:12 pmSSE 11.1 17.1----30.02- 52.5 50.4----
2024-05-27 05:06 pmSSE 12.0 17.1----30.02- 52.7 50.4----
2024-05-27 05:00 pmSSE 12.0 17.1----30.03-0.07 52.0 50.4----
2024-05-27 04:54 pmSSE 12.0 18.1----30.03- 50.9 50.4----
2024-05-27 04:48 pmSSE 13.0 18.1----30.03- 50.5 50.4----
2024-05-27 04:42 pmSSE 12.0 15.9----30.04- 51.8 50.4----
2024-05-27 04:36 pmSSE 13.0 22.0----30.04- 51.3 50.2----
2024-05-27 04:30 pm-------30.04- 51.4 50.2----
2024-05-27 04:24 pm-------30.05- 51.6 50.2----
2024-05-27 04:18 pmSSE 12.0 17.1----30.05- 51.8 50.2----
2024-05-27 04:12 pm S 9.9 15.9----30.05- 51.8 50.2----
2024-05-27 04:06 pmSSE 12.0 19.0----30.04- 51.4 50.2----
2024-05-27 04:00 pmSSE 11.1 19.0----30.05-0.06 50.4 50.4----
2024-05-27 03:54 pmSSE 12.0 17.1----30.05- 50.2 50.4----
2024-05-27 03:48 pmSSE 14.0 20.0------ 52.9 50.4----
2024-05-27 03:42 pmSSE 14.0 17.1------ 52.9 50.4----
2024-05-27 03:36 pmSSE 13.0 18.1------ 52.7 50.4----
2024-05-27 03:30 pmSSE 13.0 17.1----30.07- 51.8 50.5----
2024-05-27 03:24 pmSSE 12.0 15.9----30.07- 51.8 50.7----
2024-05-27 03:18 pmSSE 13.0 15.9----30.07- 51.3 50.7----
2024-05-27 03:12 pmSSE 13.0 15.0----30.08- 51.4 50.7----
2024-05-27 03:06 pmSSE 12.0 17.1----30.07- 51.1 50.7----
2024-05-27 03:00 pmSSE 12.0 17.1----30.08-0.04 51.4 50.7----
2024-05-27 02:54 pmSSE 14.0 17.1----30.09- 51.4 50.7----
2024-05-27 02:48 pmSSE 14.0 19.0----30.09- 51.3 50.7----
2024-05-27 02:42 pmSSE 14.0 17.1----30.09- 51.3 50.7----
2024-05-27 02:36 pmSSE 13.0 15.9----30.09- 50.7 50.7----
2024-05-27 02:30 pmSSE 15.0 20.0----30.09- 51.8 50.7----
2024-05-27 02:24 pmSSE 14.0 19.0----30.10- 49.6 50.7----
2024-05-27 02:18 pmSSE 15.0 18.1----30.10- 52.0 50.7----
2024-05-27 02:12 pmSSE 15.0 18.1----30.10- 51.8 50.7----
2024-05-27 02:06 pmSSE 15.0 19.0----30.10- 52.3 50.7----
2024-05-27 02:00 pmSSE 15.0 20.0----30.10-0.04 52.7 50.7----
2024-05-27 01:54 pmSSE 14.0 19.0----30.10- 52.2 50.7----
2024-05-27 01:48 pmSSE 15.0 18.1----30.10-- 50.5----
2024-05-27 01:42 pmSSE 15.0 19.0----30.10-- 50.5----
2024-05-27 01:36 pmSSE 13.0 19.0----30.10-- 50.5----
2024-05-27 01:30 pmSSE 13.0 19.0----30.10- 52.5 50.5----
2024-05-27 01:24 pmSSE 15.0 21.0----30.10- 52.5 50.5----
2024-05-27 01:18 pmSSE 15.9 19.0----30.11- 52.5 50.5----
2024-05-27 01:12 pmSSE 14.0 19.0----30.11- 53.2 50.5----
2024-05-27 01:06 pmSSE 17.1 22.0----30.11- 53.2 50.4----
2024-05-27 01:00 pmSSE 14.0 18.1----30.11-0.02 53.2 50.4----
2024-05-27 12:54 pmSSE 12.0 21.0----30.11- 53.2 50.4----
2024-05-27 12:48 pmSSE 15.0 17.1----30.11- 53.6 50.2----
2024-05-27 12:42 pmSSE 14.0 18.1----30.11- 53.8 50.2----
2024-05-27 12:36 pmSSE 14.0 18.1----30.11- 54.0 50.2----
2024-05-27 12:30 pmSSE 14.0 20.0----30.11- 54.1 50.4----
2024-05-27 12:24 pmSSE 15.9 20.0----30.11- 53.8 50.4----
2024-05-27 12:18 pmSSE 15.0 22.0----30.11- 53.8 50.2----
2024-05-27 12:12 pmSSE 12.0 18.1----30.11- 53.6 50.4----
2024-05-27 12:06 pmSSE 15.9 19.0----30.11- 53.2 50.4----
2024-05-27 12:00 pmSSE 13.0 18.1----30.12-0.02 53.2 50.4----
2024-05-27 11:54 amSSE 12.0 17.1----30.13- 53.1 50.5----
2024-05-27 11:48 amSSE 13.0 15.9----30.13- 53.2 50.5----
2024-05-27 11:42 amSSE 15.0 20.0----30.13- 52.9 50.5----
2024-05-27 11:36 amSSE 14.0 18.1----30.13- 53.2 50.5----
2024-05-27 11:30 amSSE 15.0 19.0----30.14- 53.2 50.5----
2024-05-27 11:24 amSSE 13.0 17.1----30.14- 53.4 50.4----
2024-05-27 11:18 amSSE 14.0 19.0----30.14- 53.2 50.4----
2024-05-27 11:12 amSSE 14.0 18.1----30.13- 53.4 50.4----
2024-05-27 11:06 amSSE 13.0 19.0----30.13- 52.7 50.4----
2024-05-27 11:00 amSSE 11.1 17.1----30.13+0.00 52.2 50.5----
2024-05-27 10:54 amSSE 11.1 15.0----30.13- 52.3 50.4----
2024-05-27 10:48 amSSE 9.9 12.0----30.14-- 50.4----
2024-05-27 10:42 amSSE 8.9 13.0----30.14-- 50.4----
2024-05-27 10:36 amSSE 8.0 12.0----30.14-- 50.4----
2024-05-27 10:30 amSSE 8.9 13.0----30.14- 52.3 50.4----
2024-05-27 10:24 amSSE 11.1 13.0----30.14- 52.2 50.4----
2024-05-27 10:18 amSSE 9.9 13.0----30.14- 52.2 50.4----
2024-05-27 10:12 amSSE 8.9 12.0----30.14- 52.3 50.4----
2024-05-27 10:06 amSSE 8.9 13.0----30.14- 52.3 50.2----
2024-05-27 10:00 amSSE 8.0 12.0----30.13+0.01 52.3 50.2----
2024-05-27 09:54 amSSE 8.9 12.0----30.13- 52.5 50.2----
2024-05-27 09:48 amSSE 8.9 12.0----30.13- 52.3 50.2----
2024-05-27 09:42 amSSE 9.9 13.0----30.13- 52.5 50.2----
2024-05-27 09:36 amSSE 8.9 12.0----30.12- 52.5 50.2----
2024-05-27 09:30 amSSE 8.0 9.9----30.12- 52.5 50.2----
2024-05-27 09:24 amSSE 8.0 11.1----30.12- 52.3 50.2----
2024-05-27 09:18 amSSE 8.9 11.1----30.13- 51.8 50.4----
2024-05-27 09:12 amSSE 7.0 9.9----30.13- 52.0 50.4----
2024-05-27 09:06 amSSE 7.0 8.9----30.13- 51.6 50.4----
2024-05-27 09:00 amSSE 8.0 11.1----30.14+0.01 51.8 50.2----
2024-05-27 08:54 amSSE 8.9 11.1----30.14- 51.6 50.2----
2024-05-27 08:48 amSSE 8.9 12.0----30.14- 51.4 50.2----
2024-05-27 08:42 amSSE 7.0 12.0----30.14- 51.4 50.2----
2024-05-27 08:36 amSSE 9.9 13.0----30.13- 51.4 50.2----
2024-05-27 08:30 amSSE 9.9 14.0----30.13- 51.3 50.2----
2024-05-27 08:24 amSSE 11.1 15.0----30.13- 50.9 50.2----
2024-05-27 08:18 amSSE 12.0 15.0----30.13- 50.9 50.2----
2024-05-27 08:12 amSSE 12.0 15.0----30.13- 50.7 50.2----
2024-05-27 08:06 amSSE 13.0 15.9----30.13- 50.7 50.0----
2024-05-27 08:00 amSSE 12.0 15.9----30.13+0.02 51.1 50.0----
2024-05-27 07:54 amSSE 11.1 18.1----30.13- 50.9 50.2----
2024-05-27 07:48 amSSE 13.0 15.0----30.13- 50.5 50.2----
2024-05-27 07:42 amSSE 12.0 15.0----30.13- 50.5 50.2----
2024-05-27 07:36 amSSE 12.0 15.0----30.13- 50.7 50.2----
2024-05-27 07:30 amSSE 11.1 15.0----30.13- 50.7 50.2----
2024-05-27 07:24 amSSE 9.9 15.0----30.13- 50.9 50.2----
2024-05-27 07:18 amSSE 8.9 14.0----30.13- 51.1 50.2----
2024-05-27 07:12 amSSE 8.9 15.0----30.13- 51.3 50.2----
2024-05-27 07:06 amSSE 9.9 13.0----30.12- 51.6 50.2----
2024-05-27 07:00 amSSE 11.1 15.9----30.12+0.02 51.8 50.2----
2024-05-27 06:54 amSSE 11.1 13.0----30.12- 52.2 50.2----
2024-05-27 06:48 amSSE 8.0 12.0----30.12- 52.0 50.2----
2024-05-27 06:42 amSSE 9.9 15.0----30.12- 52.0 50.4----
2024-05-27 06:36 amSSE 8.9 12.0----30.12- 52.0 50.4----
2024-05-27 06:30 amSSE 8.9 12.0----30.12- 51.8 50.4----
2024-05-27 06:24 amSSE 8.9 12.0----30.12- 51.8 50.4----
2024-05-27 06:18 amSSE 8.9 14.0----30.12- 52.0 50.4----
2024-05-27 06:12 am SE 8.0 12.0----30.12- 52.0 50.4----
2024-05-27 06:06 am SE 9.9 12.0----30.12- 52.0 50.4----
2024-05-27 06:00 amSSE 9.9 14.0----30.12+0.02 52.0 50.4----
2024-05-27 05:54 am SE 12.0 14.0----30.12- 52.0 50.5----
2024-05-27 05:48 am SE 12.0 15.0----30.11- 52.2 50.5----
2024-05-27 05:42 am SE 9.9 14.0----30.11- 52.0 50.5----
2024-05-27 05:36 am SE 12.0 15.0----30.11- 52.0 50.5----
2024-05-27 05:30 am SE 11.1 13.0----30.11- 52.0 50.5----
2024-05-27 05:24 am SE 8.9 12.0----30.11- 51.8 50.5----
2024-05-27 05:18 am SE 9.9 13.0----30.11- 51.8 50.5----
2024-05-27 05:12 amSSE 8.9 12.0----30.11- 51.6 50.5----
2024-05-27 05:06 amSSE 9.9 12.0----30.11- 51.8 50.5----
2024-05-27 05:00 amSSE 8.0 12.0----30.11+0.01 51.6 50.5----
2024-05-27 04:54 amSSE 8.9 12.0----30.10- 51.6 50.5----
2024-05-27 04:48 amSSE 9.9 12.0----30.10- 51.4 50.5----
2024-05-27 04:42 amSSE 9.9 12.0----30.10- 51.6 50.5----
2024-05-27 04:36 amSSE 11.1 13.0----30.10- 51.6 50.5----
2024-05-27 04:30 amSSE 8.9 12.0----30.10- 51.4 50.4----
2024-05-27 04:24 amSSE 8.9 12.0----30.11- 51.4 50.4----
2024-05-27 04:18 amSSE 9.9 15.0----30.10- 51.4 50.4----
2024-05-27 04:12 am SE 11.1 13.0----30.09- 51.3 50.4----
2024-05-27 04:06 am SE 11.1 13.0----30.10- 50.9 50.4----
2024-05-27 04:00 am SE 9.9 12.0----30.10+0.01 50.5 50.4----
2024-05-27 03:54 am SE 8.9 9.9----30.10- 50.5 50.4----
2024-05-27 03:48 am SE 8.0 9.9----30.10- 50.4 50.4----
2024-05-27 03:42 am SE 8.9 9.9----30.10- 50.4 50.4----
2024-05-27 03:36 am SE 8.0 8.9----30.10- 50.2 50.4----
2024-05-27 03:30 am SE 8.0 11.1----30.10- 50.0 50.4----
2024-05-27 03:24 amSSE 8.0 14.0----30.11- 50.2 50.4----
2024-05-27 03:18 amSSE 8.9 12.0----30.11- 50.4 50.4----
2024-05-27 03:12 amSSE 9.9 13.0----30.10- 50.5 50.4----
2024-05-27 03:06 am SE 9.9 13.0----30.10- 50.7 50.5----
2024-05-27 03:00 am SE 9.9 12.0----30.10+0.00 50.7 50.5----
2024-05-27 02:54 am SE 8.0 11.1----30.10- 50.5 50.5----
2024-05-27 02:48 amSSE 8.9 11.1----30.10- 50.5 50.7----
2024-05-27 02:42 am SE 9.9 12.0----30.10- 50.5 50.7----
2024-05-27 02:36 amSSE 8.0 8.9----30.10- 50.4 50.7----
2024-05-27 02:30 amSSE 8.0 9.9----30.10- 50.4 50.7----
2024-05-27 02:24 amSSE 7.0 8.9----30.10- 50.4 50.7----
2024-05-27 02:18 amSSE 6.0 8.9----30.09- 50.4 50.7----
2024-05-27 02:12 amSSE 6.0 8.0----30.09- 50.4 50.7----
2024-05-27 02:06 am SE 4.1 5.1----30.09- 50.2 50.9----
2024-05-27 02:00 am SE 6.0 7.0----30.09+0.00 50.0 50.7----
2024-05-27 01:54 am SE 5.1 6.0----30.09- 50.2 50.7----
2024-05-27 01:48 am SE 5.1 7.0----30.09- 50.2 50.7----
2024-05-27 01:42 am SE 5.1 5.1----30.09- 50.2 50.5----
2024-05-27 01:36 am SE 2.9 6.0----30.09- 50.2 50.5----
2024-05-27 01:30 am SE 1.9 2.9----30.09- 50.2 50.5----
2024-05-27 01:24 am S 1.0 2.9----30.09- 50.2 50.2----
2024-05-27 01:18 am SE 1.0 2.9----30.09- 50.2 49.8----
2024-05-27 01:12 am S 2.9 4.1----30.09- 50.4 49.6----
2024-05-27 01:06 amSSE 1.9 4.1----30.09- 50.5 49.8----
2024-05-27 01:00 amSSE 1.9 2.9----30.09+0.01 50.5 49.8----
2024-05-27 12:54 am S 1.9 4.1----30.09- 50.7 49.8----
2024-05-27 12:48 amSSE 2.9 5.1----30.09- 51.1 49.5----
2024-05-27 12:42 amSSE 4.1 6.0----30.09- 51.3 49.3----
2024-05-27 12:36 amSSE 5.1 7.0----30.09- 51.4 49.1----
2024-05-27 12:30 am S 5.1 7.0----30.09- 51.4 48.9----
2024-05-27 12:24 amSSE 4.1 6.0----30.10- 51.3 49.1----
2024-05-27 12:18 am S 4.1 6.0----30.10- 50.9 49.3----
2024-05-27 12:12 am S 4.1 5.1----30.11- 50.5 49.5----
2024-05-27 12:06 am S 2.9 5.1----30.10- 50.5 49.6----
2024-05-27 12:00 am S 4.1 7.0----30.10+0.03 50.7 49.8----
2024-05-26 11:54 pm S 6.0 8.0----30.10- 51.1 49.6----
2024-05-26 11:48 pm-------30.10-- 49.8----
2024-05-26 11:42 pm-------30.10-- 49.8----
2024-05-26 11:36 pm-------30.10-- 50.0----
2024-05-26 11:30 pm S 4.1 7.0----30.10- 51.6 50.4----
2024-05-26 11:24 pm S 4.1 6.0----30.10- 51.6 50.7----
2024-05-26 11:18 pm S 5.1 8.0----30.09- 51.8 50.9----
2024-05-26 11:12 pm S 4.1 6.0----30.09- 51.6 51.1----
2024-05-26 11:06 pm S 4.1 6.0----30.09- 51.8 51.1----
2024-05-26 11:00 pm S 5.1 8.9----30.09+0.04 52.2 51.1----
2024-05-26 10:54 pm S 5.1 6.0----30.09- 52.0 51.1----
2024-05-26 10:48 pm S 4.1 8.9----30.09- 51.8 51.3----
2024-05-26 10:42 pm S 5.1 7.0----30.09- 52.2 51.3----
2024-05-26 10:36 pm S 5.1 8.0----30.09- 52.2 51.4----
2024-05-26 10:30 pm---------- 51.1----
2024-05-26 10:24 pm---------- 51.3----
2024-05-26 10:18 pm S 4.1 6.0----30.09-------
2024-05-26 10:12 pm S 4.1 7.0----30.09-------
2024-05-26 10:06 pm S 5.1 8.0----30.09-------
2024-05-26 10:00 pm S 5.1 7.0----30.08+0.05- 52.0----
2024-05-26 09:54 pm S 5.1 8.0----30.09-- 52.0----
2024-05-26 09:48 pm S 5.1 8.0----30.09- 52.0 52.0----
2024-05-26 09:42 pm S 4.1 7.0----30.09- 51.8 52.0----
2024-05-26 09:36 pm S 6.0 8.9----30.09- 52.0 52.0----
2024-05-26 09:30 pm S 6.0 11.1----30.09- 52.0 52.0----
2024-05-26 09:24 pm S 5.1 8.0----30.08- 52.0 52.0----
2024-05-26 09:18 pm S 6.0 9.9----30.07-- 52.2----
2024-05-26 09:12 pm S 5.1 9.9----30.07-- 52.3----
2024-05-26 09:06 pm S 8.0 11.1----30.07-- 52.5----
2024-05-26 09:00 pm S 6.0 9.9----30.07+0.06- 52.5----
2024-05-26 08:54 pmSSE 7.0 11.1----30.07-- 52.5----
2024-05-26 08:48 pmSSE 8.0 11.1----30.06-- 52.5----
2024-05-26 08:42 pm S 7.0 11.1----30.06-- 52.7----
2024-05-26 08:36 pmSSE 7.0 12.0----30.06-- 52.7----
2024-05-26 08:30 pmSSE 8.9 12.0----30.05- 52.9 52.7----
2024-05-26 08:24 pm S 8.0 12.0----30.05- 53.1 52.7----
2024-05-26 08:18 pm S 7.0 11.1----30.05-- 52.7----
2024-05-26 08:12 pmSSE 7.0 9.9----30.05-- 52.7----
2024-05-26 08:06 pm S 6.0 11.1----30.05-- 52.7----
2024-05-26 08:00 pmSSE 9.9 12.0----30.05+0.06- 52.7----
2024-05-26 07:54 pmSSE 9.9 13.0----30.05-- 52.7----
2024-05-26 07:48 pm-------30.05-- 52.7----
2024-05-26 07:42 pm-------30.04-- 52.7----
2024-05-26 07:36 pm-------30.04-- 52.7----
2024-05-26 07:30 pmSSE 7.0 9.9----30.04-- 52.7----
2024-05-26 07:24 pm S 7.0 9.9----30.04-- 52.7----
2024-05-26 07:00 pm S 7.0 9.9----30.03+0.07 57.7 52.7----
2024-05-26 06:54 pm S 5.1 11.1----30.03- 58.5 52.7----
2024-05-26 06:48 pm S 7.0 13.0----30.03- 58.3 52.9----
2024-05-26 06:42 pmSSE 8.9 13.0----30.03- 58.3 52.9----
2024-05-26 06:36 pmSSE 8.0 11.1----30.03- 59.0 52.9----
2024-05-26 06:30 pm S 8.9 12.0----30.02-- 52.9----
2024-05-26 06:24 pm S 6.0 12.0----30.02-- 52.7----
2024-05-26 06:18 pmSSE 8.9 13.0----30.02- 58.8 52.7----
2024-05-26 06:12 pmSSE 8.9 13.0----30.02- 59.4 52.7----
2024-05-26 06:06 pmSSE 8.0 12.0----30.01- 59.7 52.5----
2024-05-26 06:00 pm S 6.0 9.9----30.01+0.06 60.8 52.5----
2024-05-26 05:54 pm S 6.0 11.1----30.01- 60.4 52.5----